Regional Weather Roundup
Issued by NWS

Home | Current Version | Previous Version | Graphics & Text | Print | Product List | Glossary On
Versions: 1 2 3 4 5 6 7 8 9 10 11 12 13 14 15 16 17 18 19 20 21 22 23 24 25 26 27 28 29 30 31 32 33 34 35 36 37 38 39 40 41 42 43 44 45 46 47 48 49 50
000
ASUS45 KCYS 300210
RWRWY

WYOMING REGIONAL WEATHER ROUNDUP
NATIONAL WEATHER SERVICE CHEYENNE WY
800 PM MDT SUN MAR 29 2015

NOTE:  "FAIR" INDICATES FEW OR NO CLOUDS BELOW 12,000 FEET
WITH NO SIGNIFICANT WEATHER AND/OR OBSTRUCTIONS TO VISIBILITY.

WYZ001-300300-
YELLOWSTONE NATIONAL PARK

CITY           SKY/WX    TMP DP  RH WIND       PRES   REMARKS
LK YELLOWSTONE   N/A     38  14  37 VRB3      30.27S
W YELLOWSTONE  NOT AVBL

$$
WYZ002>013-054>058-071-098>099-300300-
NORTHERN WYOMING

CITY           SKY/WX    TMP DP  RH WIND       PRES   REMARKS
JACKSON        CLEAR     46  21  36 VRB5      30.22S
CODY           FAIR      57  10  15 W15G25    30.09R
GREYBULL       FAIR      56  18  22 S7        30.05S
WORLAND        FAIR      49  21  33 SE10      30.05F
SHERIDAN       FAIR      42  30  62 SW6       30.05S
BUFFALO        FAIR      49  24  37 S6        30.08F
GILLETTE       FAIR      42  28  57 S3        30.07S
HULETT         FAIR      52  25  35 SW6       30.07S
NEWCASTLE      FAIR      54  21  28 N7        30.07R

$$
WYZ014>020-022>026-101>103-300300-
CENTRAL WYOMING

CITY           SKY/WX    TMP DP  RH WIND       PRES   REMARKS
BIG PINEY      FAIR      47  13  25 N13       30.23F
PINEDALE       MOCLDY    41  16  36 CALM      30.25S
DUBOIS         FAIR      43  12  28 W18       30.17F
LANDER         FAIR      56  10  16 SW8       30.08F
RIVERTON       FAIR      57  10  15 W12       30.10S
CASPER         FAIR      46  16  30 E5        30.11S
DOUGLAS        FAIR      50  17  27 CALM      30.12R

$$
WYZ021-027>030-104>119-300300-
SOUTHERN WYOMING

CITY           SKY/WX    TMP DP  RH WIND       PRES   REMARKS
EVANSTON       FAIR      48  16  27 W9        30.27S
KEMMERER       FAIR      43  14  31 NW9       30.27R
FORT BRIDGER   FAIR      50  15  25 NW8       30.29R
ROCK SPRINGS   FAIR      51  12  21 NW9       30.22R
DIXON          FAIR      54  17  23 CALM      30.22R
RAWLINS        FAIR      52   7  16 W13       30.18S
SARATOGA       FAIR      48  14  25 W7        30.22R
LARAMIE        FAIR      45  12  26 W8        30.20R
CHEYENNE       FAIR      51  21  30 SW14      30.17S
TORRINGTON     FAIR      51  22  31 E9        30.10S
PINE BLUFFS    FAIR      45  21  39 S7        30.15S

$$


USA.gov is the U.S. government's official web portal to all federal, state and local government web resources and services.